Voltar ao catálogo

HAPS R/B

AtivoLEO
NORAD 37229·ROCKET BODY·🇺🇸 United States

Lançado Nov 20, 2010 de Kodiak Launch Complex

Loading…

Próximas Passagens (próximas 24 horas)

TLE

ObsoletoSource: Mike McCants

Época: Sep 5, 2026, 22:36 UTC

1 37229U 10062H   26248.94195371 0.00000000  00000-0  00000-0 0    06
2 37229  72.0091 292.4481 0139516 202.1752 157.8248 12.86687943    07

Acompanhe HAPS R/B em tempo real com AllMySat

Download on the App Store